N3ATE Weather Reports


time (UTC)temp
F
wind
direction
speed
knots
gust
knots
rain 1hr
in
rain 24hr
in
rain mn
in
humidity
%
barometer
mb
20260506043037 57 290 0.0 0.0 0.00 0.00 0.00 82 1005.3
20260506041558 57 290 0.0 0.0 0.00 0.00 0.00 82 1005.4
20260506040022 58 360 0.0 0.0 0.00 0.00 0.00 82 1005.4
20260506034601 58 290 0.0 0.0 0.00 0.00 0.00 82 1005.5
20260506033011 58 360 0.0 0.0 0.00 0.00 0.00 81 1005.6
20260506031546 58 360 0.0 0.0 0.00 0.00 0.00 80 1005.5
20260506030054 59 289 0.0 0.0 0.00 0.00 0.00 79 1005.6
20260506024533 59 290 0.0 0.0 0.00 0.00 0.00 79 1005.6
20260506023033 60 290 0.0 2.6 0.00 0.00 0.00 78 1005.7
20260506021608 61 269 0.0 0.0 0.00 0.00 0.00 76 1005.7
20260506020027 62 360 0.0 0.0 0.00 0.00 0.00 74 1005.6
20260506014558 63 360 0.0 0.0 0.00 0.00 0.00 72 1005.6
20260506013024 64 360 0.0 0.9 0.00 0.00 0.00 72 1005.5
20260506011601 64 360 0.0 0.0 0.00 0.00 0.00 70 1005.4
20260506010013 65 360 0.0 0.0 0.00 0.00 0.00 68 1005.1
20260506004547 66 360 0.0 0.0 0.00 0.00 0.00 67 1005.0
20260506003107 67 269 0.0 0.0 0.00 0.00 0.00 65 1004.9
20260506001536 69 269 0.0 0.0 0.00 0.00 0.00 62 1004.7
20260505234530 72 300 0.0 3.5 0.00 0.00 0.00 56 1004.4
20260505233056 74 265 0.0 5.2 0.00 0.00 0.00 53 1004.2
20260505231524 75 202 1.7 7.0 0.00 0.00 0.00 49 1003.9
20260505230053 75 208 0.0 7.8 0.00 0.00 0.00 50 1003.8
20260505224516 76 216 0.9 5.2 0.00 0.00 0.00 49 1003.7
20260505223047 76 202 1.7 8.7 0.00 0.00 0.00 47 1003.8
20260505221512 76 184 0.9 7.0 0.00 0.00 0.00 48 1003.7
20260505220041 77 205 3.5 10.4 0.00 0.00 0.00 47 1003.6
20260505214505 77 192 2.6 8.7 0.00 0.00 0.00 47 1003.4
20260505213032 77 212 0.9 10.4 0.00 0.00 0.00 46 1003.3
20260505211608 77 199 3.5 7.8 0.00 0.00 0.00 47 1003.3
20260505210024 77 213 3.5 8.7 0.00 0.00 0.00 45 1003.4
20260505204555 77 202 2.6 12.2 0.00 0.00 0.00 44 1003.4
20260505203018 77 207 3.5 13.0 0.00 0.00 0.00 45 1003.3
20260505201554 78 195 6.1 17.4 0.00 0.00 0.00 44 1003.3
20260505200001 78 190 5.2 14.8 0.00 0.00 0.00 45 1003.3
20260505194525 79 208 6.1 18.2 0.00 0.00 0.00 45 1003.4
20260505193049 79 183 10.4 16.5 0.00 0.00 0.00 43 1003.4
20260505191518 79 197 5.2 18.2 0.00 0.00 0.00 47 1003.6
20260505190040 79 198 5.2 18.2 0.00 0.00 0.00 47 1003.8
20260505184601 78 200 7.8 15.6 0.00 0.00 0.00 49 1004.2
20260505183028 78 204 6.1 13.0 0.00 0.00 0.00 49 1004.6
20260505181552 76 198 7.0 16.5 0.00 0.00 0.00 52 1004.8
20260505180105 77 223 3.5 13.0 0.00 0.00 0.00 51 1004.9
20260505174541 78 242 3.5 13.9 0.00 0.00 0.00 50 1004.9
20260505173103 78 210 2.6 10.4 0.00 0.00 0.00 51 1004.9
20260505171528 77 211 4.3 13.9 0.00 0.00 0.00 52 1005.0
20260505170055 77 196 5.2 13.0 0.00 0.00 0.00 57 1005.3
20260505164521 76 245 3.5 13.0 0.00 0.00 0.00 57 1005.7
20260505163053 75 247 3.5 11.3 0.00 0.00 0.00 57 1005.8
20260505161519 75 209 5.2 15.6 0.00 0.00 0.00 55 1006.1
20260505153029 74 213 7.8 15.6 0.00 0.00 0.00 55 1006.4
20260505151611 74 218 2.6 12.2 0.00 0.00 0.00 56 1006.3
20260505140115 72 200 2.6 13.0 0.00 0.00 0.00 60 1006.5
20260505124608 67 208 0.0 7.8 0.00 0.00 0.00 66 1007.0
20260505123032 67 270 0.9 5.2 0.00 0.00 0.00 69 1006.9
20260505121510 66 338 1.7 4.3 0.00 0.00 0.00 72 1006.9
20260505120049 63 360 0.0 2.6 0.00 0.00 0.00 75 1007.0
20260505114521 62 335 0.0 2.6 0.00 0.00 0.00 80 1007.1
20260505113039 59 348 0.0 2.6 0.00 0.00 0.00 82 1006.9
20260505111608 58 347 0.0 0.0 0.00 0.00 0.00 84 1006.7
20260505101538 53 348 0.0 0.0 0.00 0.00 0.00 84 1006.1
20260505100059 53 348 0.0 0.0 0.00 0.00 0.00 83 1006.3
20260505094539 53 348 1.7 3.5 0.00 0.00 0.00 82 1006.2
20260505093006 54 355 0.0 0.9 0.00 0.00 0.00 82 1006.0
20260505091600 54 355 0.0 0.0 0.00 0.00 0.00 81 1005.9
20260505090021 54 355 0.0 0.0 0.00 0.00 0.00 80 1006.0
20260505084557 55 355 0.0 0.0 0.00 0.00 0.00 80 1005.9
20260505083030 55 348 0.0 0.9 0.00 0.00 0.00 79 1006.0
20260505081604 56 350 0.0 1.7 0.00 0.00 0.00 79 1006.0
20260505080022 56 360 0.9 5.2 0.00 0.00 0.00 80 1005.9
20260505074600 56 341 0.0 0.0 0.00 0.00 0.00 79 1005.7
20260505073034 55 342 0.0 0.0 0.00 0.00 0.00 79 1005.8
20260505071523 55 342 0.0 0.0 0.00 0.00 0.00 78 1005.7
20260505070044 55 342 0.0 0.0 0.00 0.00 0.00 77 1005.8
20260505064519 56 342 0.0 0.0 0.00 0.00 0.00 77 1006.0
20260505063040 56 342 0.0 0.9 0.00 0.00 0.00 77 1006.0
20260505061605 56 342 0.0 0.0 0.00 0.00 0.00 74 1006.1
20260505060045 57 343 0.0 0.0 0.00 0.00 0.00 73 1006.1
20260505054513 57 343 0.0 0.0 0.00 0.00 0.00 74 1006.2
20260505053046 57 343 0.9 3.5 0.00 0.00 0.00 74 1006.3
20260505051526 57 343 0.0 0.0 0.00 0.00 0.00 72 1006.3